Temperature
25 22 22 23 23 24 23 21 20 20 21 19 17 16 16 17 17 16 16 16 16 15 15 15 14 14 14 14 14 14 14 14 14 14 14 14 14 15 15 15 15 16 16 16
22 23 24 25 24 23 22 20 20 21 21 19 17 16 16 17 17 16 16 16 15 15 15 14 14 14 14 13 13 13 13 13 13 13 13 13 14 14 14 15 15 15 16 16
22 23 25 24 22 22 21 21 20 20 20 19 17 16 16 16 16 16 16 15 15 15 14 14 14 14 13 13 13 13 13 13 13 13 13 13 14 14 14 14 15 15 15 15
23 24 23 22 22 22 21 22 22 21 19 17 17 14 15 15 15 15 15 15 15 15 14 14 14 13 13 13 13 13 13 13 13 13 13 13 13 13 13 14 14 14 15 15
22 22 22 22 22 22 21 22 21 21 19 18 17 15 14 15 15 14 15 15 15 14 14 14 13 13 13 12 12 12 12 13 13 13 13 13 13 13 13 13 14 14 14 14
22 23 22 22 22 22 21 20 18 16 16 17 17 15 14 13 15 15 15 15 15 14 14 14 13 13 13 13 12 12 12 12 12 13 13 12 13 13 13 13 13 14 14 14
21 21 22 22 21 20 19 16 16 16 15 16 17 15 14 15 15 15 15 15 15 14 14 14 13 13 13 12 12 12 12 12 12 12 12 12 12 12 12 13 13 13 14 14
20 19 21 21 21 20 20 17 16 17 16 16 16 15 14 16 16 16 15 15 15 14 14 14 13 13 13 12 12 12 12 12 12 12 12 12 12 12 12 12 13 13 13 14
18 19 21 21 21 20 20 18 17 15 17 16 15 15 15 16 15 15 15 15 15 14 14 14 13 13 13 12 12 12 12 12 12 12 12 12 12 12 12 12 13 13 13 13
19 19 20 21 21 21 20 18 15 16 17 16 16 15 14 15 14 14 14 15 15 15 14 14 14 13 13 13 12 12 12 12 12 12 12 12 12 12 12 12 13 13 13 13
19 18 19 20 20 20 19 19 16 14 14 15 15 15 15 14 14 14 15 15 15 15 14 14 14 13 13 13 12 12 12 12 12 12 12 12 12 12 12 12 12 13 13 13
18 15 17 18 19 20 20 18 16 15 16 14 14 14 16 15 15 15 15 15 15 15 15 14 14 14 13 13 13 12 12 12 11 11 12 12 12 12 12 12 12 12 12 13
18 16 16 18 17 19 19 19 17 14 14 14 14 15 15 15 15 16 16 15 15 15 15 14 14 14 13 13 13 12 12 12 11 11 11 12 12 12 12 12 12 12 12 12
18 16 17 18 17 18 19 19 19 16 14 15 15 15 15 14 14 15 16 16 15 15 15 15 14 14 14 13 13 12 12 12 12 11 11 11 11 11 11 11 12 12 12 12
17 18 19 18 19 20 20 19 18 17 16 15 16 16 15 14 14 16 16 16 16 15 15 15 15 14 14 13 13 13 12 12 12 11 11 11 11 11 11 11 11 12 12 12
17 19 19 19 20 20 20 19 18 18 18 17 17 17 16 17 16 16 16 16 16 16 15 15 15 14 14 14 13 13 12 12 12 11 11 11 11 11 11 11 11 11 11 11
17 18 18 17 19 20 19 19 18 18 18 18 17 16 15 15 15 16 16 16 16 16 15 15 15 15 14 14 13 13 13 12 12 11 11 11 11 11 11 11 11 11 11 11
17 16 15 16 19 19 18 19 19 19 19 18 18 16 16 17 18 18 17 17 16 16 16 15 15 15 14 14 14 13 13 12 12 11 11 11 11 11 11 11 11 11 11 11
16 17 16 15 17 18 19 21 21 20 19 18 17 17 17 18 17 17 17 17 17 16 16 15 15 15 14 14 14 13 13 12 12 12 11 11 11 11 11 11 11 11 11 11
16 14 15 15 18 19 19 21 21 20 19 19 19 17 17 17 13 15 18 17 17 16 16 16 15 15 14 14 14 13 13 12 12 12 11 11 11 11 11 10 10 10 10 10
17 16 15 16 17 16 18 21 21 19 19 21 20 20 18 17 17 19 18 17 17 16 16 16 15 15 15 14 14 13 13 12 12 11 11 11 11 11 11 11 11 10 10 10
16 15 15 14 16 17 20 20 18 19 22 22 22 21 20 20 20 19 18 18 17 17 16 16 15 15 15 14 14 14 13 13 12 12 11 11 11 11 11 11 11 11 11 11
15 16 15 15 17 20 22 22 24 23 22 22 22 22 21 20 19 19 18 18 17 17 16 16 16 15 15 15 14 14 13 13 12 12 12 11 11 11 11 11 11 11 11 11
17 18 16 17 18 21 23 23 23 23 22 22 22 22 21 20 20 19 18 18 17 17 17 16 16 16 15 15 15 14 14 13 13 12 12 12 12 11 11 11 11 11 11 11
19 19 18 19 18 21 23 23 24 23 23 22 22 22 21 21 20 19 18 18 18 17 17 17 16 16 16 15 15 15 14 14 13 13 12 12 12 12 11 11 11 11 11 11
15 16 17 17 19 19 22 23 23 23 23 22 22 22 21 21 20 20 19 18 18 18 17 17 17 16 16 16 15 15 15 14 14 13 13 12 12 12 11 11 11 11 11 11
Wind_Speed
3 6 2 2 4 3 3 4 4 3 4 5 7 7 5 4 5 6 5 5 5 4 4 6 7 7 8 8 8 8 8 8 7 5 5 5 5 5 5 4 6 6 6 6
6 2 2 1 4 8 8 8 4 1 3 5 7 5 3 3 4 4 4 3 3 5 6 7 7 7 8 8 8 8 8 8 8 6 5 4 5 5 5 4 5 6 5 5
6 3 2 7 7 8 6 5 4 3 1 4 7 3 1 1 3 4 3 2 3 4 5 6 7 7 8 8 9 9 9 9 8 8 5 5 4 4 4 4 4 4 5 5
5 2 6 7 5 5 1 2 3 3 3 3 6 4 5 3 2 1 1 2 3 4 4 4 6 7 8 8 8 8 9 9 9 8 6 6 5 5 5 5 5 6 5 5
3 3 6 5 1 1 4 3 1 1 3 0 1 5 4 3 2 2 1 1 3 3 4 5 5 6 7 8 8 8 9 9 9 8 7 6 5 5 5 5 5 5 5 4
4 3 4 1 2 1 1 6 7 6 5 2 3 6 5 4 4 3 1 2 2 3 4 4 5 6 6 7 8 8 9 9 9 9 8 7 7 7 6 6 6 5 4 3
4 5 3 3 5 7 7 6 5 6 4 4 1 4 4 5 5 4 3 1 2 3 3 5 6 7 8 8 8 8 9 9 10 10 9 8 8 7 6 6 6 5 4 3
4 2 3 2 2 1 1 7 6 2 3 4 4 1 4 4 4 4 4 2 2 2 3 4 5 6 7 8 8 8 8 8 9 9 9 8 8 6 5 6 5 5 4 4
6 4 3 1 1 2 2 2 6 6 0 1 2 2 3 2 2 3 3 1 2 3 3 4 5 5 6 7 7 7 7 8 9 9 8 8 8 8 7 7 6 5 4 4
7 4 3 2 3 3 1 3 6 3 1 2 3 4 5 7 6 4 3 3 3 3 3 4 5 5 5 5 6 6 6 7 7 8 8 7 8 8 8 7 8 7 7 6
5 6 1 2 0 1 3 3 4 4 4 4 3 6 5 9 8 7 6 5 3 3 3 4 5 5 5 5 5 5 6 6 7 8 8 8 8 8 8 8 8 8 7 7
4 6 2 2 4 0 3 4 5 3 1 2 3 6 3 8 8 7 6 5 4 3 4 4 5 4 5 5 5 5 5 5 6 6 7 8 8 8 9 9 9 8 8 7
4 6 4 4 6 3 0 3 5 6 3 2 2 6 2 5 6 6 7 6 4 4 4 4 4 4 4 4 4 4 4 4 5 6 7 8 8 9 9 8 8 8 8 8
4 4 6 6 7 6 4 5 5 5 3 3 6 6 5 7 8 7 7 7 5 5 4 3 3 4 4 3 2 3 4 4 4 5 6 7 7 8 8 8 8 8 8 8
5 3 3 6 7 6 6 7 7 6 7 7 7 7 9 11 12 10 8 7 6 5 4 3 3 3 3 2 2 2 3 3 3 4 5 6 6 7 7 8 8 8 8 9
3 2 1 3 6 5 5 7 8 7 6 7 6 7 7 7 8 8 8 8 7 6 5 4 3 3 2 3 2 1 2 2 3 4 4 5 6 7 7 7 7 8 8 8
2 3 2 3 3 1 6 8 9 7 7 8 8 8 5 6 10 11 10 9 8 6 5 5 3 3 3 3 3 2 1 1 3 3 3 4 5 6 7 7 7 7 7 7
5 4 3 1 3 3 8 6 6 7 7 8 7 7 12 10 11 10 10 10 8 7 6 4 3 2 2 2 3 2 1 2 3 3 3 4 4 5 6 6 7 6 5 6
4 6 4 3 1 6 7 3 3 3 6 7 9 9 10 6 4 3 8 9 9 8 7 5 4 3 3 3 3 4 2 2 3 2 2 2 3 4 5 6 6 5 5 6
6 6 5 3 0 4 6 3 3 3 5 6 9 11 10 10 5 7 8 9 9 8 6 5 4 3 3 3 5 5 3 2 1 1 1 1 2 3 4 4 4 4 4 5
2 3 3 3 3 7 7 1 4 2 7 4 8 11 12 12 9 6 8 9 9 8 7 6 5 4 4 5 6 5 4 3 3 2 0 1 2 2 2 3 4 4 4 5
8 5 5 5 3 7 6 6 6 10 5 4 7 9 12 10 7 7 9 10 10 8 7 7 6 5 4 6 7 6 5 5 4 2 1 1 2 2 2 3 4 4 5 5
8 9 7 8 8 8 7 10 8 7 6 5 7 8 10 9 9 9 9 10 10 10 8 7 7 6 5 6 7 7 6 5 4 3 2 1 1 1 2 3 3 3 4 4
4 4 4 4 7 7 8 8 7 7 7 6 7 9 11 11 11 11 10 10 9 9 8 7 7 7 6 7 7 8 7 6 5 4 3 3 2 1 1 2 2 2 2 2
3 2 1 4 8 7 6 7 9 7 6 5 5 9 12 13 11 12 11 11 10 9 8 7 8 8 9 8 8 8 7 7 6 5 4 3 4 3 2 1 0 1 1 2
3 1 1 5 7 4 6 6 4 5 6 6 6 6 8 11 13 12 11 11 10 10 9 8 9 9 9 8 8 8 8 8 7 5 5 4 4 4 3 3 1 2 2 1
Wind_Direction
43 69 91 190 178 156 132 123 133 166 148 119 137 147 164 144 105 93 76 57 34 11 350 356 360 357 355 352 349 345 342 337 337 331 326 318 314 306 298 286 281 275 266 253
48 57 254 97 72 77 83 90 91 94 158 121 127 133 158 142 121 119 104 67 19 0 355 351 357 357 351 347 344 343 339 333 330 320 305 287 290 289 285 288 290 283 275 261
147 216 66 76 63 74 73 116 154 189 84 95 111 79 137 92 98 98 94 67 10 9 353 347 352 349 347 345 340 340 332 331 328 325 320 319 314 309 312 310 301 289 284 270
111 39 75 76 61 81 123 183 166 162 129 216 157 174 225 190 114 76 56 15 355 352 352 346 347 343 340 335 334 332 331 330 330 331 332 330 324 310 294 291 288 293 286 275
89 71 73 73 41 101 219 252 269 208 164 290 122 138 241 181 194 249 263 323 345 344 356 350 341 331 330 332 336 335 333 334 334 336 333 329 324 309 304 305 303 301 292 276
79 59 90 124 313 313 16 22 25 47 73 332 250 154 229 222 205 209 246 325 330 339 350 342 334 335 334 336 338 337 339 335 337 339 341 339 334 329 332 329 321 315 306 290
49 15 12 40 21 11 55 63 25 9 12 266 346 116 229 216 188 176 178 243 307 328 343 336 338 340 336 337 337 337 342 340 340 343 345 342 336 336 336 326 320 322 319 311
128 287 318 30 106 280 23 129 140 196 244 284 8 151 247 211 173 157 167 195 325 332 325 327 325 327 329 332 333 337 342 341 342 346 345 342 342 341 336 331 328 324 315 302
150 216 288 324 20 114 55 103 168 147 234 352 314 299 298 202 171 173 177 182 319 317 313 310 315 320 324 328 328 331 337 340 342 345 344 347 350 350 346 343 341 334 332 332
132 159 252 246 12 350 132 135 72 82 69 319 292 244 231 209 208 196 193 213 269 295 306 305 309 308 312 320 322 332 339 337 337 346 352 356 350 352 354 360 2 359 356 360
110 126 115 37 18 267 29 51 82 110 146 156 275 270 223 193 190 191 204 214 232 256 269 278 291 297 307 322 331 342 344 344 347 350 351 354 355 355 359 7 6 4 7 12
84 110 93 307 307 263 142 143 131 131 273 166 202 269 250 178 183 185 196 210 221 240 251 262 282 302 317 324 329 340 344 348 346 349 355 358 360 2 7 8 4 7 11 13
90 105 88 345 335 339 172 182 143 132 119 144 205 271 247 186 191 196 195 206 221 242 257 270 292 299 306 311 318 331 339 341 347 358 5 6 4 6 10 8 7 8 13 19
110 105 156 188 213 203 200 209 170 125 144 240 232 242 216 212 210 210 206 208 219 236 247 265 285 285 291 295 303 323 336 337 354 10 15 12 5 4 7 9 12 13 18 25
105 115 207 223 213 182 193 200 193 182 189 200 234 226 229 210 204 203 203 205 215 231 242 246 258 267 276 274 291 313 338 346 6 22 19 9 3 7 12 15 15 16 22 27
98 136 287 279 238 207 230 226 211 215 208 215 228 251 236 189 180 192 198 197 209 222 227 236 249 254 257 241 240 277 340 352 30 36 17 8 13 15 13 13 15 20 22 21
93 123 85 302 308 11 278 242 208 213 208 191 215 231 171 170 190 196 199 200 206 209 212 219 233 239 241 228 207 208 237 35 49 40 18 10 16 18 11 14 19 19 19 23
125 109 115 36 44 248 257 263 192 204 229 209 205 192 179 191 197 198 193 191 195 197 201 210 224 234 227 203 183 167 120 74 65 46 18 6 14 15 9 14 15 13 19 25
126 125 98 90 311 287 293 276 163 184 268 219 196 189 190 171 144 234 210 188 188 194 194 197 199 191 180 176 161 133 114 90 76 50 7 348 4 13 13 11 6 8 23 29
71 89 104 99 11 264 264 269 129 92 285 252 185 182 174 142 167 239 213 188 184 184 182 181 174 163 162 170 146 131 136 131 145 218 292 329 0 19 14 6 7 14 32 35
60 61 117 164 237 267 258 191 85 110 252 256 183 180 172 180 201 207 178 178 179 181 185 175 168 173 183 170 147 143 163 190 211 209 221 5 7 21 27 19 23 32 40 42
170 163 186 156 202 266 229 151 183 219 236 220 190 184 183 198 196 178 172 176 179 183 185 177 175 192 194 175 157 162 193 213 207 190 177 4 1 21 65 48 35 39 48 50
189 187 183 185 214 240 210 204 219 190 206 217 195 194 178 175 179 179 180 181 186 188 191 187 183 193 201 191 175 180 207 203 190 181 196 204 84 58 76 78 60 43 45 56
269 176 152 230 264 257 246 246 249 215 219 219 195 184 172 178 182 183 184 188 191 194 195 192 184 191 205 206 201 199 198 190 181 190 207 197 172 145 88 77 79 73 52 56
285 150 173 265 285 305 299 258 248 245 245 229 196 184 182 180 184 187 189 194 195 197 197 189 190 200 211 207 209 209 196 182 184 199 207 199 191 180 169 150 125 152 227 206
345 1 225 251 269 245 266 283 246 225 238 226 203 195 194 187 190 190 195 198 197 198 196 195 199 205 209 204 209 210 197 185 184 197 206 203 198 194 186 183 235 305 258 268
Height
1533 1540 1546 1543 1540 1542 1544 1551 1556 1555 1551 1556 1563 1567 1566 1566 1565 1565 1564 1563 1562 1560 1558 1555 1552 1548 1545 1540 1537 1533 1529 1526 1522 1519 1516 1514 1512 1511 1510 1509 1508 1509 1509 1510
1541 1544 1539 1536 1537 1541 1545 1553 1557 1554 1551 1557 1566 1569 1567 1566 1566 1566 1565 1564 1562 1560 1557 1554 1551 1547 1543 1539 1535 1531 1527 1523 1520 1517 1514 1511 1509 1507 1505 1505 1504 1504 1504 1505
1543 1542 1536 1538 1542 1545 1550 1554 1556 1556 1554 1558 1566 1574 1571 1568 1567 1567 1565 1564 1562 1560 1557 1553 1550 1546 1542 1538 1533 1529 1525 1522 1518 1515 1511 1509 1506 1504 1502 1501 1500 1499 1499 1499
1540 1538 1538 1542 1546 1547 1554 1547 1548 1552 1561 1569 1566 1583 1575 1570 1569 1567 1565 1563 1561 1559 1556 1553 1549 1545 1541 1537 1533 1529 1524 1521 1517 1513 1510 1506 1503 1500 1499 1497 1496 1495 1495 1495
1543 1541 1543 1547 1547 1545 1548 1544 1547 1550 1557 1565 1567 1579 1578 1570 1570 1567 1565 1563 1561 1559 1556 1553 1549 1545 1541 1537 1533 1528 1524 1520 1516 1512 1508 1505 1502 1499 1496 1495 1493 1492 1491 1491
1542 1542 1543 1545 1544 1544 1544 1548 1552 1559 1566 1575 1566 1575 1578 1573 1567 1565 1564 1562 1560 1558 1556 1553 1549 1545 1541 1537 1533 1528 1524 1520 1516 1512 1508 1504 1501 1497 1495 1492 1491 1490 1489 1489
1549 1547 1545 1544 1547 1547 1550 1564 1578 1578 1585 1580 1565 1571 1574 1565 1563 1562 1562 1562 1560 1558 1555 1552 1548 1545 1541 1537 1533 1529 1524 1520 1516 1512 1507 1504 1501 1497 1494 1492 1490 1489 1487 1487
1560 1563 1549 1547 1549 1553 1553 1563 1580 1587 1587 1580 1569 1573 1571 1562 1562 1561 1561 1561 1559 1557 1554 1552 1548 1545 1541 1537 1533 1529 1525 1521 1517 1513 1508 1505 1501 1498 1495 1492 1490 1488 1486 1485
1561 1562 1549 1547 1547 1549 1554 1560 1562 1575 1574 1580 1577 1573 1567 1562 1562 1562 1561 1560 1558 1556 1554 1551 1548 1545 1541 1538 1534 1530 1526 1522 1518 1514 1510 1506 1502 1498 1495 1492 1490 1487 1485 1484
1548 1559 1552 1549 1549 1549 1551 1555 1567 1573 1580 1586 1577 1575 1575 1565 1563 1561 1560 1559 1557 1555 1553 1551 1548 1545 1542 1538 1535 1531 1527 1523 1519 1515 1511 1507 1503 1500 1496 1493 1490 1488 1485 1483
1543 1557 1557 1554 1555 1556 1555 1557 1565 1575 1578 1586 1587 1579 1559 1558 1558 1559 1558 1557 1556 1554 1553 1550 1548 1545 1542 1539 1535 1532 1528 1524 1520 1516 1513 1509 1505 1501 1498 1494 1491 1488 1486 1484
1545 1558 1566 1559 1553 1550 1551 1555 1564 1575 1576 1579 1585 1578 1553 1554 1555 1556 1556 1556 1555 1553 1552 1550 1547 1545 1542 1539 1536 1532 1529 1525 1522 1518 1514 1511 1507 1503 1499 1496 1493 1490 1487 1485
1545 1558 1571 1568 1565 1555 1553 1552 1556 1567 1574 1578 1583 1573 1554 1554 1554 1554 1554 1554 1553 1552 1551 1549 1547 1545 1542 1539 1536 1533 1530 1527 1523 1520 1516 1512 1509 1505 1501 1498 1495 1492 1489 1486
1544 1555 1564 1568 1564 1555 1554 1553 1552 1562 1574 1573 1569 1562 1555 1554 1553 1552 1552 1552 1552 1551 1550 1548 1546 1544 1542 1539 1536 1534 1531 1528 1525 1521 1518 1514 1510 1507 1504 1500 1497 1494 1491 1488
1544 1552 1550 1550 1546 1546 1547 1549 1551 1555 1559 1565 1559 1555 1550 1547 1548 1549 1550 1550 1550 1549 1548 1547 1546 1544 1541 1539 1537 1534 1531 1529 1526 1522 1519 1516 1513 1510 1506 1503 1500 1497 1494 1491
1544 1549 1549 1549 1544 1544 1546 1545 1547 1549 1549 1550 1550 1548 1540 1541 1545 1546 1547 1548 1548 1548 1547 1546 1545 1543 1541 1539 1537 1534 1532 1529 1527 1524 1521 1518 1515 1512 1508 1505 1503 1500 1497 1495
1546 1550 1555 1559 1548 1548 1554 1543 1543 1543 1540 1542 1547 1543 1539 1542 1542 1543 1544 1545 1545 1546 1546 1545 1544 1542 1541 1539 1537 1535 1532 1530 1527 1525 1522 1519 1517 1514 1511 1508 1505 1503 1500 1498
1545 1551 1560 1561 1556 1562 1548 1532 1532 1535 1534 1534 1533 1534 1535 1536 1538 1540 1541 1542 1543 1544 1544 1544 1543 1542 1540 1539 1537 1535 1533 1530 1528 1526 1523 1521 1518 1516 1513 1511 1508 1505 1503 1501
1540 1548 1559 1565 1563 1557 1541 1531 1530 1534 1534 1529 1530 1531 1533 1535 1538 1539 1539 1540 1541 1542 1542 1542 1542 1541 1540 1538 1537 1535 1533 1531 1529 1526 1524 1522 1520 1518 1515 1513 1510 1508 1506 1504
1543 1547 1558 1563 1561 1560 1543 1529 1528 1533 1537 1525 1526 1528 1531 1535 1541 1537 1536 1538 1539 1540 1541 1541 1541 1540 1539 1538 1536 1535 1533 1531 1529 1527 1525 1523 1521 1519 1517 1515 1513 1511 1508 1506
1549 1553 1559 1562 1562 1554 1534 1529 1531 1545 1538 1523 1523 1524 1527 1529 1530 1531 1533 1535 1537 1538 1539 1540 1540 1539 1538 1537 1536 1535 1533 1531 1530 1528 1527 1525 1523 1521 1519 1517 1515 1513 1511 1509
1549 1555 1558 1563 1562 1554 1527 1528 1532 1530 1522 1521 1521 1522 1523 1525 1527 1529 1530 1532 1535 1536 1537 1538 1538 1538 1537 1537 1536 1534 1533 1531 1530 1529 1527 1526 1524 1523 1521 1519 1517 1515 1513 1511
1540 1539 1542 1545 1542 1526 1522 1521 1520 1520 1520 1520 1520 1521 1522 1523 1525 1527 1529 1531 1532 1534 1535 1536 1536 1536 1536 1536 1535 1534 1533 1531 1530 1529 1528 1527 1525 1524 1522 1521 1519 1517 1515 1514
1530 1528 1531 1532 1525 1521 1519 1519 1519 1519 1519 1518 1518 1519 1520 1521 1522 1524 1526 1528 1530 1531 1533 1534 1534 1534 1534 1534 1534 1533 1532 1531 1530 1529 1528 1527 1526 1525 1523 1522 1521 1519 1517 1516
1527 1526 1528 1527 1522 1518 1516 1516 1516 1516 1517 1517 1517 1517 1517 1518 1520 1521 1523 1525 1527 1528 1530 1531 1531 1532 1532 1532 1532 1532 1531 1530 1530 1529 1528 1527 1526 1525 1524 1523 1522 1520 1519 1517
1530 1531 1531 1529 1521 1520 1517 1515 1515 1514 1514 1514 1514 1514 1515 1516 1517 1519 1520 1522 1524 1525 1527 1528 1528 1529 1529 1530 1530 1530 1529 1529 1528 1528 1527 1526 1526 1525 1524 1523 1522 1521 1520 1519